| time (UTC) | temp F | wind direction | speed knots | gust knots | rain 1hr in | rain 24hr in | rain mn in | humidity % | barometer mb |
| 20260506185555 | 81 | 34 | 1.7 | 4.3 | 0.00 | 0.00 | 0.00 | 82 | 1010.1 |
| 20260506185058 | 81 | 113 | 1.7 | 5.2 | 0.00 | 0.00 | 0.00 | 84 | 1010.1 |
| 20260506184556 | 81 | 64 | 2.6 | 5.2 | 0.00 | 0.00 | 0.00 | 82 | 1010.1 |
| 20260506184056 | 81 | 113 | 1.7 | 4.3 | 0.00 | 0.00 | 0.00 | 83 | 1010.2 |
| 20260506183556 | 81 | 86 | 2.6 | 4.3 | 0.00 | 0.00 | 0.00 | 84 | 1010.3 |
| 20260506183100 | 81 | 53 | 0.9 | 7.0 | 0.00 | 0.00 | 0.00 | 85 | 1010.3 |
| 20260506182556 | 80 | 98 | 3.5 | 9.6 | 0.00 | 0.00 | 0.00 | 86 | 1010.2 |
| 20260506182055 | 80 | 54 | 3.5 | 9.6 | 0.00 | 0.00 | 0.00 | 85 | 1010.2 |
| 20260506181621 | 80 | 97 | 3.5 | 9.6 | 0.00 | 0.00 | 0.00 | 87 | 1010.3 |
| 20260506181055 | 80 | 66 | 3.5 | 6.1 | 0.00 | 0.00 | 0.00 | 85 | 1010.4 |
| 20260506180557 | 80 | 58 | 2.6 | 7.0 | 0.00 | 0.00 | 0.00 | 86 | 1010.4 |
| 20260506180054 | 80 | 73 | 4.3 | 7.8 | 0.00 | 0.00 | 0.00 | 85 | 1010.6 |
| 20260506175555 | 79 | 43 | 4.3 | 7.8 | 0.00 | 0.00 | 0.00 | 88 | 1010.6 |
| 20260506175055 | 79 | 58 | 5.2 | 7.8 | 0.00 | 0.00 | 0.00 | 88 | 1010.6 |
| 20260506174555 | 79 | 71 | 5.2 | 7.8 | 0.00 | 0.00 | 0.00 | 88 | 1010.7 |
| 20260506174055 | 78 | 67 | 4.3 | 6.1 | 0.00 | 0.00 | 0.00 | 89 | 1010.8 |
| 20260506173556 | 78 | 63 | 4.3 | 6.1 | 0.00 | 0.00 | 0.00 | 91 | 1010.8 |
| 20260506173101 | 78 | 79 | 3.5 | 6.1 | 0.00 | 0.00 | 0.00 | 90 | 1010.9 |
| 20260506172556 | 78 | 70 | 2.6 | 4.3 | 0.00 | 0.00 | 0.00 | 90 | 1010.9 |
| 20260506172055 | 78 | 87 | 1.7 | 4.3 | 0.00 | 0.00 | 0.00 | 91 | 1011.1 |
| 20260506171600 | 78 | 63 | 2.6 | 4.3 | 0.00 | 0.00 | 0.00 | 90 | 1011.2 |
| 20260506171055 | 78 | 64 | 3.5 | 4.3 | 0.00 | 0.00 | 0.00 | 90 | 1011.3 |
| 20260506170556 | 78 | 65 | 1.7 | 2.6 | 0.00 | 0.00 | 0.00 | 90 | 1011.3 |
| 20260506170057 | 78 | 24 | 0.9 | 4.3 | 0.00 | 0.00 | 0.00 | 90 | 1011.3 |
| 20260506165558 | 78 | 15 | 1.7 | 5.2 | 0.00 | 0.00 | 0.00 | 89 | 1011.4 |
| 20260506165056 | 78 | 39 | 3.5 | 5.2 | 0.00 | 0.00 | 0.00 | 89 | 1011.5 |
| 20260506164600 | 78 | 34 | 1.7 | 4.3 | 0.00 | 0.00 | 0.00 | 88 | 1011.5 |
| 20260506164058 | 78 | 16 | 3.5 | 4.3 | 0.00 | 0.00 | 0.00 | 88 | 1011.4 |
| 20260506163555 | 78 | 25 | 2.6 | 3.5 | 0.00 | 0.00 | 0.00 | 87 | 1011.4 |
| 20260506163055 | 78 | 17 | 2.6 | 3.5 | 0.00 | 0.00 | 0.00 | 87 | 1011.5 |
| 20260506162555 | 78 | 23 | 1.7 | 2.6 | 0.00 | 0.00 | 0.00 | 87 | 1011.5 |
| 20260506162058 | 78 | 66 | 0.9 | 2.6 | 0.00 | 0.00 | 0.00 | 87 | 1011.2 |
| 20260506161557 | 78 | 65 | 1.7 | 3.5 | 0.00 | 0.00 | 0.00 | 87 | 1011.2 |
| 20260506161058 | 78 | 105 | 1.7 | 3.5 | 0.00 | 0.00 | 0.00 | 86 | 1011.2 |
| 20260506160555 | 78 | 60 | 1.7 | 4.3 | 0.00 | 0.00 | 0.00 | 86 | 1011.1 |
| 20260506160059 | 78 | 135 | 1.7 | 5.2 | 0.00 | 0.00 | 0.00 | 86 | 1011.0 |
| 20260506155602 | 78 | 68 | 1.7 | 5.2 | 0.00 | 0.00 | 0.00 | 88 | 1010.7 |
| 20260506155054 | 78 | 79 | 3.5 | 5.2 | 0.00 | 0.00 | 0.00 | 88 | 1010.5 |
| 20260506154601 | 78 | 72 | 2.6 | 5.2 | 0.00 | 0.00 | 0.00 | 88 | 1010.4 |
| 20260506154056 | 78 | 85 | 3.5 | 5.2 | 0.00 | 0.00 | 0.00 | 88 | 1010.5 |
| 20260506153556 | 78 | 124 | 3.5 | 5.2 | 0.00 | 0.00 | 0.00 | 87 | 1010.4 |
| 20260506153110 | 78 | 139 | 1.7 | 4.3 | 0.00 | 0.00 | 0.00 | 88 | 1010.3 |
| 20260506152555 | 78 | 95 | 2.6 | 3.5 | 0.00 | 0.00 | 0.00 | 88 | 1010.3 |
| 20260506152055 | 78 | 99 | 2.6 | 5.2 | 0.00 | 0.00 | 0.00 | 88 | 1010.3 |
| 20260506151555 | 77 | 109 | 2.6 | 5.2 | 0.00 | 0.00 | 0.00 | 88 | 1010.3 |
| 20260506151100 | 78 | 105 | 2.6 | 4.3 | 0.00 | 0.00 | 0.00 | 88 | 1010.4 |
| 20260506150555 | 77 | 148 | 1.7 | 3.5 | 0.00 | 0.00 | 0.00 | 89 | 1010.5 |
| 20260506145555 | 77 | 147 | 1.7 | 3.5 | 0.00 | 0.00 | 0.00 | 89 | 1010.4 |
| 20260506145055 | 77 | 165 | 1.7 | 5.2 | 0.00 | 0.00 | 0.00 | 89 | 1010.4 |
| 20260506144558 | 77 | 155 | 2.6 | 7.8 | 0.00 | 0.00 | 0.00 | 90 | 1010.2 |
| 20260506144055 | 77 | 133 | 4.3 | 7.8 | 0.00 | 0.00 | 0.00 | 89 | 1010.1 |
| 20260506143555 | 77 | 149 | 4.3 | 7.0 | 0.00 | 0.00 | 0.00 | 89 | 1010.0 |
| 20260506143054 | 77 | 150 | 4.3 | 7.0 | 0.00 | 0.00 | 0.00 | 90 | 1010.0 |
| 20260506142555 | 77 | 138 | 4.3 | 6.1 | 0.00 | 0.00 | 0.00 | 91 | 1009.8 |
| 20260506142055 | 77 | 147 | 3.5 | 7.0 | 0.00 | 0.00 | 0.00 | 91 | 1009.8 |
| 20260506141555 | 76 | 138 | 4.3 | 7.0 | 0.00 | 0.00 | 0.00 | 91 | 1009.6 |
| 20260506141055 | 76 | 156 | 4.3 | 8.7 | 0.00 | 0.00 | 0.00 | 92 | 1009.6 |
| 20260506140558 | 76 | 117 | 5.2 | 8.7 | 0.00 | 0.00 | 0.00 | 92 | 1009.4 |
| 20260506140107 | 76 | 131 | 5.2 | 8.7 | 0.00 | 0.00 | 0.00 | 92 | 1009.5 |
| 20260506135555 | 75 | 136 | 5.2 | 7.0 | 0.00 | 0.00 | 0.00 | 93 | 1009.4 |
| 20260506135055 | 75 | 162 | 5.2 | 7.0 | 0.00 | 0.00 | 0.00 | 93 | 1009.5 |
| 20260506134553 | 75 | 131 | 4.3 | 8.7 | 0.00 | 0.00 | 0.00 | 93 | 1009.4 |
| 20260506134058 | 75 | 141 | 4.3 | 8.7 | 0.00 | 0.00 | 0.00 | 93 | 1009.5 |
| 20260506133555 | 75 | 117 | 6.1 | 8.7 | 0.00 | 0.00 | 0.00 | 93 | 1009.5 |
| 20260506133053 | 75 | 139 | 4.3 | 6.1 | 0.00 | 0.00 | 0.00 | 93 | 1009.6 |
| 20260506132554 | 75 | 134 | 4.3 | 6.1 | 0.00 | 0.00 | 0.00 | 94 | 1009.6 |
| 20260506132056 | 75 | 135 | 3.5 | 6.1 | 0.00 | 0.00 | 0.00 | 94 | 1009.6 |
| 20260506131556 | 75 | 129 | 3.5 | 5.2 | 0.00 | 0.00 | 0.00 | 94 | 1009.7 |
| 20260506131055 | 75 | 127 | 3.5 | 6.1 | 0.00 | 0.00 | 0.00 | 94 | 1009.5 |
| 20260506130555 | 75 | 133 | 3.5 | 6.1 | 0.00 | 0.00 | 0.00 | 94 | 1009.5 |
| 20260506130058 | 75 | 130 | 3.5 | 7.8 | 0.00 | 0.00 | 0.00 | 94 | 1009.5 |
| 20260506125555 | 74 | 137 | 4.3 | 7.8 | 0.00 | 0.00 | 0.00 | 94 | 1009.5 |
| 20260506125055 | 74 | 132 | 4.3 | 7.0 | 0.00 | 0.00 | 0.00 | 94 | 1009.4 |
| 20260506124556 | 74 | 134 | 3.5 | 5.2 | 0.00 | 0.00 | 0.00 | 95 | 1009.4 |
| 20260506124055 | 74 | 141 | 3.5 | 5.2 | 0.00 | 0.00 | 0.00 | 95 | 1009.4 |
| 20260506123555 | 74 | 160 | 3.5 | 5.2 | 0.00 | 0.00 | 0.00 | 95 | 1009.4 |
| 20260506123055 | 74 | 176 | 3.5 | 5.2 | 0.00 | 0.00 | 0.00 | 95 | 1009.4 |
| 20260506122556 | 74 | 145 | 2.6 | 5.2 | 0.00 | 0.00 | 0.00 | 95 | 1009.3 |
| 20260506122055 | 74 | 158 | 2.6 | 5.2 | 0.00 | 0.00 | 0.00 | 95 | 1009.2 |
| 20260506121557 | 74 | 152 | 2.6 | 5.2 | 0.00 | 0.00 | 0.00 | 95 | 1009.2 |
| 20260506121055 | 74 | 166 | 3.5 | 5.2 | 0.00 | 0.00 | 0.00 | 95 | 1009.1 |
| 20260506120555 | 74 | 155 | 3.5 | 5.2 | 0.00 | 0.00 | 0.00 | 95 | 1009.3 |
| 20260506120057 | 74 | 143 | 2.6 | 5.2 | 0.00 | 0.00 | 0.00 | 95 | 1009.2 |
| 20260506115555 | 74 | 150 | 3.5 | 5.2 | 0.00 | 0.00 | 0.00 | 95 | 1009.2 |
| 20260506115054 | 74 | 135 | 2.6 | 5.2 | 0.00 | 0.00 | 0.00 | 95 | 1009.1 |
| 20260506114559 | 74 | 150 | 2.6 | 6.1 | 0.00 | 0.00 | 0.00 | 95 | 1009.1 |
| 20260506114054 | 74 | 150 | 2.6 | 6.1 | 0.00 | 0.00 | 0.00 | 95 | 1009.0 |
| 20260506113555 | 74 | 154 | 3.5 | 7.0 | 0.00 | 0.00 | 0.00 | 96 | 1009.0 |
| 20260506113055 | 74 | 158 | 4.3 | 7.0 | 0.00 | 0.00 | 0.00 | 96 | 1008.9 |
| 20260506112556 | 73 | 153 | 4.3 | 6.1 | 0.00 | 0.00 | 0.00 | 96 | 1008.9 |
| 20260506112055 | 73 | 159 | 3.5 | 6.1 | 0.00 | 0.00 | 0.00 | 96 | 1008.8 |
| 20260506111554 | 73 | 150 | 3.5 | 6.1 | 0.00 | 0.00 | 0.00 | 96 | 1008.8 |
| 20260506111055 | 73 | 146 | 3.5 | 7.0 | 0.00 | 0.00 | 0.00 | 96 | 1008.8 |
| 20260506110555 | 73 | 160 | 3.5 | 7.0 | 0.00 | 0.00 | 0.00 | 96 | 1008.8 |
| 20260506110057 | 73 | 189 | 2.6 | 7.0 | 0.00 | 0.00 | 0.00 | 95 | 1008.8 |
| 20260506105556 | 73 | 170 | 4.3 | 7.8 | 0.00 | 0.00 | 0.00 | 95 | 1008.6 |
| 20260506105057 | 73 | 195 | 3.5 | 8.7 | 0.00 | 0.00 | 0.00 | 95 | 1008.7 |
| 20260506104600 | 73 | 161 | 4.3 | 8.7 | 0.00 | 0.00 | 0.00 | 95 | 1008.5 |
| 20260506104055 | 73 | 148 | 5.2 | 8.7 | 0.00 | 0.00 | 0.00 | 95 | 1008.3 |
| 20260506103555 | 73 | 161 | 5.2 | 8.7 | 0.00 | 0.00 | 0.00 | 95 | 1008.4 |
| 20260506103059 | 73 | 179 | 6.1 | 8.7 | 0.00 | 0.00 | 0.00 | 95 | 1008.3 |
| 20260506102556 | 73 | 153 | 6.1 | 7.8 | 0.00 | 0.00 | 0.00 | 95 | 1008.1 |
| 20260506102059 | 73 | 160 | 4.3 | 6.1 | 0.00 | 0.00 | 0.00 | 95 | 1008.2 |
| 20260506101600 | 73 | 175 | 3.5 | 7.8 | 0.00 | 0.00 | 0.00 | 95 | 1008.1 |
| 20260506101055 | 73 | 157 | 5.2 | 7.8 | 0.00 | 0.00 | 0.00 | 95 | 1008.0 |
| 20260506100556 | 73 | 154 | 5.2 | 7.8 | 0.00 | 0.00 | 0.00 | 95 | 1007.9 |
| 20260506095555 | 73 | 177 | 5.2 | 7.8 | 0.00 | 0.00 | 0.00 | 95 | 1008.1 |
| 20260506095055 | 73 | 153 | 4.3 | 7.8 | 0.00 | 0.00 | 0.00 | 95 | 1008.1 |
| 20260506094559 | 73 | 157 | 4.3 | 7.0 | 0.00 | 0.00 | 0.00 | 95 | 1008.0 |
| 20260506094058 | 73 | 163 | 4.3 | 7.0 | 0.00 | 0.00 | 0.00 | 95 | 1008.1 |
| 20260506093554 | 73 | 159 | 3.5 | 7.0 | 0.00 | 0.00 | 0.00 | 95 | 1008.1 |
| 20260506093056 | 73 | 179 | 4.3 | 6.1 | 0.00 | 0.00 | 0.00 | 95 | 1008.1 |
| 20260506092556 | 73 | 152 | 4.3 | 6.1 | 0.00 | 0.00 | 0.00 | 95 | 1008.1 |
| 20260506092055 | 73 | 165 | 3.5 | 6.1 | 0.00 | 0.00 | 0.00 | 94 | 1008.1 |
| 20260506091600 | 73 | 148 | 3.5 | 7.0 | 0.00 | 0.00 | 0.00 | 95 | 1008.1 |
| 20260506091059 | 73 | 155 | 3.5 | 7.0 | 0.00 | 0.00 | 0.00 | 94 | 1008.0 |
| 20260506090558 | 73 | 185 | 4.3 | 7.8 | 0.00 | 0.00 | 0.00 | 94 | 1007.9 |
| 20260506090104 | 73 | 158 | 5.2 | 7.8 | 0.00 | 0.00 | 0.00 | 94 | 1007.9 |
| 20260506085556 | 74 | 170 | 4.3 | 8.7 | 0.00 | 0.00 | 0.00 | 94 | 1007.9 |
| 20260506085055 | 74 | 159 | 5.2 | 8.7 | 0.00 | 0.00 | 0.00 | 94 | 1007.9 |
| 20260506084558 | 74 | 164 | 6.1 | 8.7 | 0.00 | 0.00 | 0.00 | 94 | 1007.9 |
| 20260506084055 | 74 | 144 | 5.2 | 7.8 | 0.00 | 0.00 | 0.00 | 94 | 1007.9 |
| 20260506083554 | 74 | 141 | 6.1 | 7.8 | 0.00 | 0.00 | 0.00 | 94 | 1007.9 |
| 20260506083056 | 74 | 150 | 4.3 | 7.8 | 0.00 | 0.00 | 0.00 | 93 | 1008.1 |
| 20260506082555 | 74 | 174 | 5.2 | 9.6 | 0.00 | 0.00 | 0.00 | 93 | 1008.0 |
| 20260506082055 | 74 | 154 | 6.1 | 9.6 | 0.00 | 0.00 | 0.00 | 93 | 1008.0 |
| 20260506081557 | 74 | 174 | 5.2 | 8.7 | 0.00 | 0.00 | 0.00 | 93 | 1008.0 |
| 20260506081056 | 74 | 154 | 7.0 | 8.7 | 0.00 | 0.00 | 0.00 | 93 | 1008.0 |
| 20260506080555 | 74 | 156 | 6.1 | 8.7 | 0.00 | 0.00 | 0.00 | 93 | 1008.0 |
| 20260506080106 | 74 | 152 | 7.0 | 9.6 | 0.00 | 0.00 | 0.00 | 93 | 1008.0 |
| 20260506073055 | 75 | 170 | 5.2 | 9.6 | 0.00 | 0.00 | 0.00 | 93 | 1008.7 |
| 20260506072555 | 75 | 156 | 5.2 | 10.4 | 0.00 | 0.00 | 0.00 | 93 | 1008.7 |
| 20260506072055 | 75 | 163 | 6.1 | 10.4 | 0.00 | 0.00 | 0.00 | 93 | 1008.7 |
| 20260506071604 | 75 | 174 | 7.0 | 10.4 | 0.00 | 0.00 | 0.00 | 93 | 1008.8 |
| 20260506071055 | 75 | 150 | 6.1 | 9.6 | 0.00 | 0.00 | 0.00 | 93 | 1008.8 |
| 20260506070555 | 75 | 162 | 6.1 | 10.4 | 0.00 | 0.00 | 0.00 | 93 | 1008.9 |
| 20260506062055 | 74 | 155 | 7.0 | 9.6 | 0.00 | 0.00 | 0.00 | 93 | 1008.9 |
| 20260506061554 | 74 | 146 | 5.2 | 8.7 | 0.00 | 0.00 | 0.00 | 93 | 1009.1 |
| 20260506061056 | 74 | 160 | 6.1 | 8.7 | 0.00 | 0.00 | 0.00 | 93 | 1009.1 |
| 20260506060555 | 74 | 161 | 5.2 | 8.7 | 0.00 | 0.00 | 0.00 | 93 | 1009.1 |
| 20260506051052 | 75 | 153 | 4.3 | 7.8 | 0.00 | 0.00 | 0.00 | 91 | 1009.2 |
| 20260506050551 | 75 | 162 | 5.2 | 7.8 | 0.00 | 0.00 | 0.00 | 91 | 1009.2 |
| 20260506050107 | 75 | 163 | 5.2 | 7.8 | 0.00 | 0.00 | 0.00 | 91 | 1009.2 |
| 20260506045051 | 76 | 151 | 7.0 | 10.4 | 0.00 | 0.00 | 0.00 | 90 | 1009.1 |
| 20260506044554 | 76 | 155 | 7.0 | 10.4 | 0.00 | 0.00 | 0.00 | 90 | 1009.2 |
| 20260506044051 | 76 | 166 | 6.1 | 10.4 | 0.00 | 0.00 | 0.00 | 90 | 1009.2 |
| 20260506043554 | 76 | 167 | 7.0 | 10.4 | 0.00 | 0.00 | 0.00 | 90 | 1009.2 |
| 20260506043053 | 76 | 155 | 7.0 | 11.3 | 0.00 | 0.00 | 0.00 | 90 | 1009.1 |
| 20260506042554 | 76 | 157 | 8.7 | 12.2 | 0.00 | 0.00 | 0.00 | 90 | 1009.0 |
| 20260506042054 | 76 | 146 | 7.0 | 12.2 | 0.00 | 0.00 | 0.00 | 90 | 1008.9 |
| 20260506041600 | 76 | 204 | 7.8 | 12.2 | 0.00 | 0.00 | 0.00 | 90 | 1008.9 |
| 20260506041050 | 76 | 154 | 7.8 | 12.2 | 0.00 | 0.00 | 0.00 | 90 | 1008.9 |
| 20260506040551 | 76 | 175 | 8.7 | 12.2 | 0.00 | 0.00 | 0.00 | 90 | 1008.8 |
| 20260506040055 | 76 | 153 | 7.8 | 12.2 | 0.00 | 0.00 | 0.00 | 90 | 1008.8 |
| 20260506035555 | 76 | 161 | 6.1 | 10.4 | 0.00 | 0.00 | 0.00 | 90 | 1008.8 |
| 20260506035053 | 76 | 163 | 7.0 | 11.3 | 0.00 | 0.00 | 0.00 | 90 | 1008.8 |
| 20260506034610 | 76 | 152 | 7.0 | 11.3 | 0.00 | 0.00 | 0.00 | 90 | 1008.8 |
| 20260506034056 | 76 | 160 | 7.8 | 11.3 | 0.00 | 0.00 | 0.00 | 89 | 1008.7 |
| 20260506033551 | 76 | 146 | 7.0 | 9.6 | 0.00 | 0.00 | 0.00 | 89 | 1008.8 |
| 20260506033054 | 76 | 156 | 7.0 | 9.6 | 0.00 | 0.00 | 0.00 | 89 | 1008.8 |
| 20260506032554 | 76 | 160 | 5.2 | 9.6 | 0.00 | 0.00 | 0.00 | 89 | 1008.7 |
| 20260506032053 | 76 | 147 | 7.0 | 9.6 | 0.00 | 0.00 | 0.00 | 89 | 1008.7 |
| 20260506031556 | 76 | 162 | 6.1 | 9.6 | 0.00 | 0.00 | 0.00 | 89 | 1008.7 |
| 20260506031054 | 76 | 154 | 4.3 | 6.1 | 0.00 | 0.00 | 0.00 | 89 | 1008.7 |
| 20260506030550 | 76 | 154 | 3.5 | 6.1 | 0.00 | 0.00 | 0.00 | 89 | 1008.6 |
| 20260506030056 | 76 | 151 | 4.3 | 7.8 | 0.00 | 0.00 | 0.00 | 89 | 1008.4 |
| 20260506025555 | 76 | 168 | 5.2 | 7.8 | 0.00 | 0.00 | 0.00 | 89 | 1008.3 |
| 20260506025056 | 76 | 158 | 5.2 | 7.0 | 0.00 | 0.00 | 0.00 | 89 | 1008.2 |
| 20260506024612 | 76 | 136 | 4.3 | 6.1 | 0.00 | 0.00 | 0.00 | 89 | 1008.2 |
| 20260506024051 | 77 | 165 | 4.3 | 6.1 | 0.00 | 0.00 | 0.00 | 89 | 1008.1 |
| 20260506023550 | 76 | 136 | 2.6 | 7.0 | 0.00 | 0.00 | 0.00 | 89 | 1008.1 |
| 20260506023055 | 76 | 126 | 3.5 | 7.0 | 0.00 | 0.00 | 0.00 | 89 | 1008.0 |
| 20260506022554 | 76 | 148 | 4.3 | 7.0 | 0.00 | 0.00 | 0.00 | 89 | 1007.8 |
| 20260506022051 | 76 | 150 | 2.6 | 5.2 | 0.00 | 0.00 | 0.00 | 89 | 1007.8 |
| 20260506021554 | 76 | 183 | 2.6 | 5.2 | 0.00 | 0.00 | 0.00 | 89 | 1007.8 |
| 20260506021054 | 76 | 149 | 2.6 | 5.2 | 0.00 | 0.00 | 0.00 | 89 | 1007.7 |
| 20260506020555 | 77 | 154 | 3.5 | 6.1 | 0.00 | 0.00 | 0.00 | 88 | 1007.6 |
| 20260506020051 | 77 | 160 | 3.5 | 6.1 | 0.00 | 0.00 | 0.00 | 88 | 1007.7 |
| 20260506015554 | 77 | 150 | 4.3 | 7.8 | 0.00 | 0.00 | 0.00 | 88 | 1007.6 |
| 20260506015054 | 77 | 153 | 4.3 | 7.8 | 0.00 | 0.00 | 0.00 | 87 | 1007.6 |
| 20260506014553 | 77 | 155 | 5.2 | 11.3 | 0.00 | 0.00 | 0.00 | 87 | 1007.5 |
| 20260506014057 | 77 | 146 | 5.2 | 11.3 | 0.00 | 0.00 | 0.00 | 87 | 1007.3 |
| 20260506013555 | 77 | 163 | 7.0 | 10.4 | 0.00 | 0.00 | 0.00 | 87 | 1007.2 |
| 20260506013107 | 77 | 142 | 7.0 | 10.4 | 0.00 | 0.00 | 0.00 | 86 | 1007.2 |
| 20260506012558 | 77 | 148 | 6.1 | 10.4 | 0.00 | 0.00 | 0.00 | 86 | 1007.0 |
| 20260506012053 | 77 | 154 | 7.0 | 11.3 | 0.00 | 0.00 | 0.00 | 86 | 1007.0 |
| 20260506011606 | 78 | 148 | 7.8 | 11.3 | 0.00 | 0.00 | 0.00 | 85 | 1006.9 |
| 20260506011053 | 78 | 163 | 7.8 | 11.3 | 0.00 | 0.00 | 0.00 | 85 | 1006.8 |
| 20260506010554 | 78 | 150 | 8.7 | 11.3 | 0.00 | 0.00 | 0.00 | 85 | 1006.8 |
| 20260506010056 | 78 | 158 | 7.8 | 10.4 | 0.00 | 0.00 | 0.00 | 84 | 1006.8 |
| 20260506005554 | 78 | 148 | 7.8 | 11.3 | 0.00 | 0.00 | 0.00 | 84 | 1006.7 |
| 20260506005055 | 79 | 157 | 7.8 | 12.2 | 0.00 | 0.00 | 0.00 | 84 | 1006.8 |
| 20260506004555 | 79 | 141 | 7.0 | 12.2 | 0.00 | 0.00 | 0.00 | 83 | 1006.8 |
| 20260506004053 | 79 | 159 | 9.6 | 13.0 | 0.00 | 0.00 | 0.00 | 83 | 1006.7 |
| 20260506003552 | 79 | 144 | 8.7 | 13.0 | 0.00 | 0.00 | 0.00 | 82 | 1006.5 |
| 20260506003055 | 79 | 153 | 8.7 | 12.2 | 0.00 | 0.00 | 0.00 | 82 | 1006.6 |
| 20260506002554 | 79 | 133 | 9.6 | 12.2 | 0.00 | 0.00 | 0.00 | 82 | 1006.6 |
| 20260506002054 | 79 | 150 | 7.8 | 11.3 | 0.00 | 0.00 | 0.00 | 82 | 1006.5 |
| 20260506001554 | 79 | 143 | 7.0 | 13.0 | 0.00 | 0.00 | 0.00 | 82 | 1006.5 |
| 20260506001054 | 79 | 155 | 7.0 | 13.0 | 0.00 | 0.00 | 0.00 | 82 | 1006.6 |
| 20260506000554 | 79 | 146 | 8.7 | 15.6 | 0.00 | 0.00 | 0.00 | 82 | 1006.5 |
| 20260506000055 | 80 | 155 | 9.6 | 15.6 | 0.00 | 0.00 | 0.00 | 82 | 1006.5 |
| 20260505235554 | 80 | 146 | 10.4 | 15.6 | 0.00 | 0.00 | 0.00 | 82 | 1006.5 |
| 20260505235054 | 80 | 148 | 9.6 | 12.2 | 0.00 | 0.00 | 0.00 | 82 | 1006.5 |
| 20260505234557 | 80 | 138 | 7.8 | 13.9 | 0.00 | 0.00 | 0.00 | 81 | 1006.4 |
| 20260505234051 | 80 | 166 | 9.6 | 14.8 | 0.00 | 0.00 | 0.00 | 81 | 1006.4 |
| 20260505233554 | 81 | 139 | 9.6 | 14.8 | 0.00 | 0.00 | 0.00 | 80 | 1006.3 |
| 20260505233053 | 81 | 139 | 9.6 | 14.8 | 0.00 | 0.00 | 0.00 | 80 | 1006.3 |
| 20260505232554 | 81 | 145 | 8.7 | 12.2 | 0.00 | 0.00 | 0.00 | 80 | 1006.4 |
| 20260505232058 | 81 | 146 | 8.7 | 12.2 | 0.00 | 0.00 | 0.00 | 80 | 1006.4 |
| 20260505231633 | 82 | 140 | 9.6 | 12.2 | 0.00 | 0.00 | 0.00 | 79 | 1006.3 |
| 20260505231058 | 82 | 146 | 9.6 | 12.2 | 0.00 | 0.00 | 0.00 | 78 | 1006.1 |
| 20260505230556 | 82 | 213 | 7.8 | 12.2 | 0.00 | 0.00 | 0.00 | 77 | 1006.1 |
| 20260505230106 | 82 | 158 | 7.0 | 15.6 | 0.00 | 0.00 | 0.00 | 77 | 1006.2 |
| 20260505225556 | 83 | 165 | 10.4 | 15.6 | 0.00 | 0.00 | 0.00 | 77 | 1006.2 |
| 20260505225056 | 83 | 159 | 9.6 | 13.9 | 0.00 | 0.00 | 0.00 | 77 | 1006.2 |
| 20260505224556 | 83 | 145 | 9.6 | 13.9 | 0.00 | 0.00 | 0.00 | 76 | 1006.1 |
| 20260505224055 | 82 | 156 | 7.8 | 15.6 | 0.00 | 0.00 | 0.00 | 76 | 1006.1 |
| 20260505223555 | 82 | 129 | 8.7 | 15.6 | 0.00 | 0.00 | 0.00 | 77 | 1006.2 |
| 20260505223110 | 82 | 165 | 10.4 | 16.5 | 0.00 | 0.00 | 0.00 | 76 | 1006.1 |
| 20260505222555 | 83 | 147 | 9.6 | 16.5 | 0.00 | 0.00 | 0.00 | 77 | 1006.3 |
| 20260505222055 | 82 | 161 | 12.2 | 16.5 | 0.00 | 0.00 | 0.00 | 77 | 1006.2 |
| 20260505221557 | 83 | 146 | 10.4 | 15.6 | 0.00 | 0.00 | 0.00 | 77 | 1006.2 |
| 20260505221058 | 83 | 154 | 10.4 | 17.4 | 0.00 | 0.00 | 0.00 | 76 | 1006.2 |
| 20260505220600 | 83 | 162 | 10.4 | 17.4 | 0.00 | 0.00 | 0.00 | 76 | 1006.3 |
| 20260505220056 | 83 | 165 | 11.3 | 16.5 | 0.00 | 0.00 | 0.00 | 77 | 1006.2 |
| 20260505215556 | 83 | 160 | 12.2 | 16.5 | 0.00 | 0.00 | 0.00 | 76 | 1006.2 |
| 20260505215056 | 83 | 176 | 11.3 | 16.5 | 0.00 | 0.00 | 0.00 | 76 | 1006.4 |
| 20260505214557 | 83 | 155 | 9.6 | 16.5 | 0.00 | 0.00 | 0.00 | 78 | 1006.5 |
| 20260505214055 | 83 | 143 | 11.3 | 16.5 | 0.00 | 0.00 | 0.00 | 79 | 1006.4 |
| 20260505213600 | 83 | 150 | 11.3 | 19.1 | 0.00 | 0.00 | 0.00 | 77 | 1006.5 |
| 20260505213102 | 83 | 149 | 13.0 | 19.1 | 0.00 | 0.00 | 0.00 | 76 | 1006.6 |
| 20260505212555 | 83 | 142 | 12.2 | 16.5 | 0.00 | 0.00 | 0.00 | 76 | 1006.7 |
| 20260505212056 | 83 | 146 | 12.2 | 16.5 | 0.00 | 0.00 | 0.00 | 76 | 1006.9 |
| 20260505211555 | 83 | 153 | 12.2 | 16.5 | 0.00 | 0.00 | 0.00 | 77 | 1007.0 |
| 20260505211057 | 84 | 147 | 9.6 | 13.9 | 0.00 | 0.00 | 0.00 | 76 | 1006.9 |
| 20260505210556 | 84 | 155 | 10.4 | 13.9 | 0.00 | 0.00 | 0.00 | 73 | 1007.1 |
| 20260505210056 | 84 | 153 | 9.6 | 15.6 | 0.00 | 0.00 | 0.00 | 74 | 1007.2 |
| 20260505205555 | 84 | 179 | 11.3 | 15.6 | 0.00 | 0.00 | 0.00 | 74 | 1007.3 |
| 20260505205056 | 84 | 149 | 10.4 | 13.9 | 0.00 | 0.00 | 0.00 | 75 | 1007.3 |
| 20260505204601 | 84 | 168 | 9.6 | 13.9 | 0.00 | 0.00 | 0.00 | 75 | 1007.4 |
| 20260505204056 | 84 | 193 | 7.8 | 14.8 | 0.00 | 0.00 | 0.00 | 75 | 1007.6 |
| 20260505203555 | 84 | 156 | 10.4 | 14.8 | 0.00 | 0.00 | 0.00 | 75 | 1007.7 |
| 20260505203116 | 83 | 169 | 9.6 | 13.0 | 0.00 | 0.00 | 0.00 | 75 | 1007.9 |
| 20260505202557 | 84 | 168 | 9.6 | 13.9 | 0.00 | 0.00 | 0.00 | 74 | 1007.9 |
| 20260505202056 | 84 | 148 | 9.6 | 13.9 | 0.00 | 0.00 | 0.00 | 76 | 1007.9 |
| 20260505201557 | 84 | 162 | 9.6 | 13.0 | 0.00 | 0.00 | 0.00 | 74 | 1008.0 |
| 20260505201056 | 83 | 172 | 7.8 | 13.9 | 0.00 | 0.00 | 0.00 | 76 | 1008.1 |
| 20260505200558 | 83 | 172 | 8.7 | 13.9 | 0.00 | 0.00 | 0.00 | 75 | 1008.1 |
| 20260505200054 | 83 | 190 | 9.6 | 13.9 | 0.00 | 0.00 | 0.00 | 77 | 1008.2 |
| 20260505195558 | 83 | 171 | 7.8 | 13.0 | 0.00 | 0.00 | 0.00 | 76 | 1008.2 |
| 20260505195055 | 83 | 160 | 8.7 | 13.0 | 0.00 | 0.00 | 0.00 | 76 | 1008.3 |
| 20260505194610 | 83 | 167 | 8.7 | 14.8 | 0.00 | 0.00 | 0.00 | 76 | 1008.4 |
| 20260505194059 | 84 | 195 | 10.4 | 14.8 | 0.00 | 0.00 | 0.00 | 74 | 1008.4 |
| 20260505193556 | 83 | 176 | 9.6 | 13.9 | 0.00 | 0.00 | 0.00 | 75 | 1008.3 |
| 20260505193056 | 83 | 190 | 8.7 | 13.9 | 0.00 | 0.00 | 0.00 | 76 | 1008.6 |
| 20260505192559 | 82 | 198 | 8.7 | 13.0 | 0.00 | 0.00 | 0.00 | 76 | 1008.6 |
| 20260505192056 | 82 | 199 | 7.8 | 12.2 | 0.00 | 0.00 | 0.00 | 79 | 1008.8 |
| 20260505191554 | 82 | 211 | 8.7 | 11.3 | 0.00 | 0.00 | 0.00 | 79 | 1008.7 |
| 20260505191057 | 81 | 191 | 7.8 | 10.4 | 0.00 | 0.00 | 0.00 | 79 | 1008.8 |
| 20260505190559 | 81 | 175 | 7.8 | 10.4 | 0.00 | 0.00 | 0.00 | 80 | 1008.8 |
| 20260505190054 | 81 | 191 | 7.0 | 10.4 | 0.00 | 0.00 | 0.00 | 78 | 1008.9 |